Weather History for Al Qaysumah, Saudi Arabia

Change the Weather History Date:

Thursday, February 14, 2013

  Actual Average Record
Temperature  
Mean Temperature 56 °F -  
Max Temperature 69 °F 71 °F 78 °F (2009)
Min Temperature 42 °F 49 °F 39 °F (1998)
Degree Days  
Heating Degree Days 10    
Growing Degree Days 6 (Base 50)    
Moisture  
Dew Point 41 °F    
Average Humidity 59    
Maximum Humidity 93    
Minimum Humidity 27    
Precipitation  
Precipitation 0.00 in - - ()
Sea Level Pressure  
Sea Level Pressure 30.13 in    
Wind  
Wind Speed 4 mph ()    
Max Wind Speed 6 mph    
Max Gust Speed -    
Visibility 6.0 miles    
Events      
Averages and records for this station are not official NWS values.
T = Trace of Precipitation, MM = Missing Value Source: Averaged Metar Reports

Daily Weather History Graph

Daily Weather History Graph

Search for Another Location

Airport:

Trip Planner

Search our weather history database for the weather conditions in past years. The results will help you decide how hot, cold, wet, or windy it might be!

Date:

Astronomy

Feb. 14, 2013 Rise Set
Actual Time 6:34 AM AST 5:45 PM AST
Civil Twilight 6:10 AM AST 6:09 PM AST
Nautical Twilight 5:42 AM AST 6:37 PM AST
Astronomical Twilight 5:15 AM AST 7:04 PM AST
Moon 8:50 AM AST (2/14) 9:56 PM AST (2/14)
Length of Visible Light 11h 59m
Length of Day
11h 11m
Waxing Crescent, 18% of the Moon is Illuminated
Feb 14
Waxing Crescent
Feb 17
First Quarter
Feb 25
Full
Mar 5
Last Quarter
Mar 11
New

Hourly Weather History & Observations

Time (AST) Temp. Windchill Dew Point Humidity Pressure Visibility Wind Dir Wind Speed Gust Speed Precip Events Conditions
12:00 AM 52 °F - 48 °F 82% 30.14 in 6 mi NW 2.3 mph - -  
12:00 AM 51.8 °F - 48.2 °F 88% 30.15 in - NW 2.3 mph - N/A   Clear
1:00 AM 51.8 °F - 48.2 °F 88% 30.12 in - NNW 4.6 mph - N/A   Clear
2:00 AM 51.8 °F - 48.2 °F 88% 30.12 in - NW 3.5 mph - N/A   Clear
3:00 AM 50 °F - 46 °F 83% 30.13 in 6 mi WNW 3.5 mph - -  
3:00 AM 50.0 °F - 46.4 °F 87% 30.12 in - WNW 3.5 mph - N/A   Clear
4:00 AM 46.4 °F 45.2 °F 44.6 °F 93% 30.12 in - NW 3.5 mph - N/A   Clear
5:00 AM 46.4 °F 45.2 °F 44.6 °F 93% 30.12 in - West 3.5 mph - N/A   Clear
6:00 AM 45 °F - 43 °F 89% 30.16 in 6 mi West 4.6 mph - -  
6:00 AM 44.6 °F 42.2 °F 42.8 °F 93% 30.15 in - West 4.6 mph - N/A   Clear
7:00 AM 46.4 °F 43.5 °F 42.8 °F 87% 30.15 in - WNW 5.8 mph - N/A   Clear
8:00 AM 48.2 °F - 42.8 °F 82% 30.18 in - WNW 4.6 mph - N/A   Clear
9:00 AM 52 °F - 43 °F 62% 30.20 in 6 mi NW 4.6 mph - -  
9:00 AM 51.8 °F - 42.8 °F 71% 30.18 in - NW 4.6 mph - N/A   Clear
10:00 AM 57.2 °F - 41.0 °F 55% 30.18 in - WNW 4.6 mph - N/A   Clear
11:00 AM 62.6 °F - 39.2 °F 42% 30.18 in - WNW 4.6 mph - N/A   Clear
12:00 PM 63 °F - 41 °F 33% 30.16 in 6 mi NNW 4.6 mph - -  
12:00 PM 62.6 °F - 41.0 °F 45% 30.15 in - NNW 4.6 mph - N/A   Clear
1:00 PM 64.4 °F - 39.2 °F 40% 30.15 in - WNW 4.6 mph - N/A   Clear
2:00 PM 66.2 °F - 39.2 °F 37% 30.09 in - North 4.6 mph - N/A   Clear
3:00 PM 67 °F - 41 °F 27% 30.09 in 6 mi North 4.6 mph - -  
3:00 PM 68.0 °F - 41.0 °F 37% 30.09 in - North 4.6 mph - N/A   Clear
4:00 PM 68.0 °F - 39.2 °F 35% 30.09 in - NW 4.6 mph - N/A   Clear
5:00 PM 68.0 °F - 39.2 °F 35% 30.09 in - North 4.6 mph - N/A   Clear
6:00 PM 65 °F - 39 °F 27% 30.10 in 6 mi NNW 4.6 mph - -  
6:00 PM 64.4 °F - 39.2 °F 40% 30.09 in - NNW 4.6 mph - N/A   Clear
7:00 PM 62.6 °F - 37.4 °F 39% 30.09 in - North 4.6 mph - N/A   Clear
8:00 PM 59.0 °F - 37.4 °F 45% 30.12 in - North 4.6 mph - N/A   Clear
9:00 PM 57 °F - 36 °F 33% 30.12 in 6 mi North 4.6 mph - -  
9:00 PM 57.2 °F - 35.6 °F 44% 30.12 in - North 4.6 mph - N/A   Clear
10:00 PM 55.4 °F - 35.6 °F 47% 30.12 in - North 4.6 mph - N/A   Clear
11:00 PM 53.6 °F - 33.8 °F 47% 30.12 in - NNE 4.6 mph - N/A   Clear